Plattsburgh, NY

7:06 AM EDT on April 28, 2017 (GMT -0400)
Plattsburgh International

Weather History for KPBG - July, 2012

Change the Weather History Date:

Thursday, July 19, 2012

  Actual Average Record
Temperature  
Mean Temperature 63 °F 70 °F  
Max Temperature 75 °F 80 °F 95 °F (2013)
Min Temperature 51 °F 59 °F 47 °F (1970)
Degree Days  
Heating Degree Days 2 0  
Month to date heating degree days 12  
Since 1 June heating degree days 97  
Since 1 July heating degree days 12  
Cooling Degree Days 0 5  
Month to date cooling degree days 116 89  
Year to date cooling degree days 242 159  
Since 1 June cooling degree days 206 151  
Growing Degree Days 12 (Base 50)    
Moisture  
Dew Point 49 °F    
Average Humidity 66    
Maximum Humidity 96    
Minimum Humidity 35    
Precipitation  
Precipitation 0.00 in - 1.11 in (1952)
Month to date precipitation 1.90  
Year to date precipitation 12.49  
Sea Level Pressure  
Sea Level Pressure 30.01 in    
Wind  
Wind Speed 6 mph (North)    
Max Wind Speed 17 mph    
Max Gust Speed 44 mph    
Visibility 10 miles    
Events      
T = Trace of Precipitation, MM = Missing Value Source: NWS Daily Summary

Daily Weather History Graph

Daily Weather History Graph

Search for Another Location

Airport or City:

Trip Planner

Search our weather history database for the weather conditions in past years. The results will help you decide how hot, cold, wet, or windy it might be!

Date:

Astronomy

Jul. 19, 2012 Rise Set
Actual Time 5:26 AM EDT 8:32 PM EDT
Civil Twilight 4:51 AM EDT 9:07 PM EDT
Nautical Twilight 4:06 AM EDT 9:52 PM EDT
Astronomical Twilight 3:12 AM EDT 10:46 PM EDT
Moon 6:02 AM EDT (7/19) 8:32 PM EDT (7/19)
Length of Visible Light 16h 16m
Length of Day
15h 05m
New Moon, 0% of the Moon is Illuminated
Jul 19
New Moon
Jul 26
First Quarter
Aug 1
Full
Aug 9
Last Quarter
Aug 17
New

Hourly Weather History & Observations

Time (EDT) Temp. Dew Point Humidity Pressure Visibility Wind Dir Wind Speed Gust Speed Precip Events Conditions
12:53 AM 57.0 °F 53.1 °F 87% 29.99 in 10.0 mi Calm Calm - N/A   Clear
1:53 AM 59.0 °F 51.1 °F 75% 29.98 in 10.0 mi WNW 4.6 mph - N/A   Clear
2:53 AM 55.0 °F 51.1 °F 86% 29.98 in 10.0 mi Calm Calm - N/A   Clear
3:53 AM 53.1 °F 50.0 °F 89% 29.98 in 10.0 mi Calm Calm - N/A   Clear
4:53 AM 53.1 °F 50.0 °F 89% 29.99 in 10.0 mi Calm Calm - N/A   Scattered Clouds
5:53 AM 52.0 °F 50.0 °F 93% 30.00 in 10.0 mi Calm Calm - N/A   Clear
6:53 AM 55.9 °F 52.0 °F 87% 30.01 in 10.0 mi Calm Calm - N/A   Overcast
7:53 AM 63.0 °F 53.1 °F 70% 30.01 in 10.0 mi Calm Calm - N/A   Clear
8:53 AM 66.9 °F 53.1 °F 61% 30.01 in 10.0 mi NE 4.6 mph - N/A   Clear
9:53 AM 72.0 °F 50.0 °F 46% 30.02 in 10.0 mi North 12.7 mph - N/A   Clear
10:53 AM 73.0 °F 45.0 °F 37% 30.03 in 10.0 mi North 13.8 mph 20.7 mph N/A   Clear
11:53 AM 71.1 °F 45.0 °F 39% 30.03 in 10.0 mi North 9.2 mph 18.4 mph N/A   Partly Cloudy
12:53 PM 73.0 °F 46.9 °F 39% 30.02 in 10.0 mi North 12.7 mph 21.9 mph N/A   Scattered Clouds
1:53 PM 73.0 °F 48.0 °F 41% 30.01 in 10.0 mi North 12.7 mph 19.6 mph N/A   Mostly Cloudy
2:53 PM 73.9 °F 48.9 °F 41% 30.00 in 10.0 mi North 11.5 mph 19.6 mph N/A   Scattered Clouds
3:53 PM 73.0 °F 48.0 °F 41% 30.01 in 10.0 mi NNW 17.3 mph 20.7 mph N/A   Scattered Clouds
4:53 PM 73.0 °F 48.0 °F 41% 30.01 in 10.0 mi North 12.7 mph - N/A   Mostly Cloudy
5:53 PM 72.0 °F 46.0 °F 40% 30.02 in 10.0 mi North 11.5 mph - N/A   Partly Cloudy
6:53 PM 71.1 °F 46.0 °F 41% 30.01 in 10.0 mi North 10.4 mph - N/A   Clear
7:15 PM 69.8 °F 46.4 °F 43% 30.01 in 10.0 mi North 10.4 mph - N/A   Partly Cloudy
7:53 PM 70.0 °F 48.0 °F 46% 30.02 in 10.0 mi NW 4.6 mph - N/A   Clear
8:53 PM 62.1 °F 52.0 °F 70% 30.03 in 10.0 mi Calm Calm - N/A   Clear
9:53 PM 60.1 °F 52.0 °F 75% 30.04 in 10.0 mi Calm Calm - N/A   Clear
10:53 PM 57.9 °F 51.1 °F 78% 30.05 in 10.0 mi Calm Calm - N/A   Clear
11:53 PM 55.0 °F 51.1 °F 86% 30.06 in 10.0 mi Calm Calm - N/A   Clear